Tracking 19192 objects as of 21-Jun-2018
HD Live streaming from Space Station
objects crossing your sky now

ARIANE 42P R/B

Track ARIANE 42P R/B now!
10-day predictions


NORAD ID: 25667
Int'l Code: 1999-016B
Perigee: 322.6 km
Apogee: 20,434.6 km
Inclination: 4.3 °
Period: 359.6 minutes
Semi major axis: 16749 km
RCS: 21.049 m2 (large)
Launch date: April 2, 1999
Source: France (FR)
Launch site: FRENCH GUIANA (FRGUI)

Note: This is a ROCKET BODY
aabbcc
Your satellite tracking list
Your tracking list is empty




NASA's NSSDC Master Catalog

Two Line Element Set (TLE):
1 25667U 99016B   18172.09162252  .00000871  00000-0  35370-3 0  9994
2 25667   4.3116 238.9033 6003718 323.4945   7.7703  4.00494376222610
Source of the keplerian elements: AFSPC